uid,date,node_uid,node_name,location_uid,location,reading1,node_unit,username,node_type
21143,"2024-04-30 16:00:00",68,"7 Circus Street, Oxford OX4 1JR - Gas ",19,"Circus Street 7",13580.00,m³,***,Gas
21050,"2024-04-02 12:21:00",68,"7 Circus Street, Oxford OX4 1JR - Gas ",19,"Circus Street 7",13488.00,m³,***,Gas
20909,"2024-02-28 12:51:00",68,"7 Circus Street, Oxford OX4 1JR - Gas ",19,"Circus Street 7",13301.00,m³,***,Gas
20870,"2024-02-01 15:55:00",68,"7 Circus Street, Oxford OX4 1JR - Gas ",19,"Circus Street 7",13112.00,m³,***,Gas
20786,"2024-01-04 10:04:00",68,"7 Circus Street, Oxford OX4 1JR - Gas ",19,"Circus Street 7",12877.00,m³,***,Gas
20647,"2023-11-30 15:10:00",68,"7 Circus Street, Oxford OX4 1JR - Gas ",19,"Circus Street 7",12593.00,m³,***,Gas
20488,"2023-10-30 09:03:00",68,"7 Circus Street, Oxford OX4 1JR - Gas ",19,"Circus Street 7",12375.00,m³,***,Gas
20452,"2023-10-03 10:03:00",68,"7 Circus Street, Oxford OX4 1JR - Gas ",19,"Circus Street 7",12287.00,m³,***,Gas
20290,"2023-09-01 08:49:00",68,"7 Circus Street, Oxford OX4 1JR - Gas ",19,"Circus Street 7",12203.00,m³,***,Gas
20274,"2023-08-01 11:26:00",68,"7 Circus Street, Oxford OX4 1JR - Gas ",19,"Circus Street 7",12180.00,m³,***,Gas
20070,"2023-06-29 10:09:00",68,"7 Circus Street, Oxford OX4 1JR - Gas ",19,"Circus Street 7",12148.00,m³,***,Gas
20056,"2023-06-01 14:18:00",68,"7 Circus Street, Oxford OX4 1JR - Gas ",19,"Circus Street 7",12090.00,m³,***,Gas
19910,"2023-04-28 12:07:00",68,"7 Circus Street, Oxford OX4 1JR - Gas ",19,"Circus Street 7",11992.00,m³,***,Gas
19814,"2023-03-31 12:16:00",68,"7 Circus Street, Oxford OX4 1JR - Gas ",19,"Circus Street 7",11860.00,m³,***,Gas
19732,"2023-03-01 10:53:00",68,"7 Circus Street, Oxford OX4 1JR - Gas ",19,"Circus Street 7",11563.00,m³,***,Gas
19642,"2023-02-01 11:07:00",68,"7 Circus Street, Oxford OX4 1JR - Gas ",19,"Circus Street 7",11503.00,m³,***,Gas
19530,"2023-01-03 14:48:00",68,"7 Circus Street, Oxford OX4 1JR - Gas ",19,"Circus Street 7",11300.00,m³,***,Gas
19409,"2022-11-30 10:39:00",68,"7 Circus Street, Oxford OX4 1JR - Gas ",19,"Circus Street 7",11135.00,m³,***,Gas
19315,"2022-10-31 10:42:00",68,"7 Circus Street, Oxford OX4 1JR - Gas ",19,"Circus Street 7",11046.00,m³,***,Gas
19196,"2022-09-29 11:36:00",68,"7 Circus Street, Oxford OX4 1JR - Gas ",19,"Circus Street 7",10977.00,m³,***,Gas
19172,"2022-08-31 11:12:00",68,"7 Circus Street, Oxford OX4 1JR - Gas ",19,"Circus Street 7",10995.00,m³,***,Gas
19079,"2022-08-01 09:34:00",68,"7 Circus Street, Oxford OX4 1JR - Gas ",19,"Circus Street 7",10943.00,m³,***,Gas
18993,"2022-07-01 11:55:00",68,"7 Circus Street, Oxford OX4 1JR - Gas ",19,"Circus Street 7",10930.00,m³,***,Gas
18906,"2022-05-26 14:28:00",68,"7 Circus Street, Oxford OX4 1JR - Gas ",19,"Circus Street 7",10884.00,m³,***,Gas
18818,"2022-04-29 11:51:00",68,"7 Circus Street, Oxford OX4 1JR - Gas ",19,"Circus Street 7",10829.00,m³,***,Gas
18730,"2022-04-01 10:08:00",68,"7 Circus Street, Oxford OX4 1JR - Gas ",19,"Circus Street 7",10717.00,m³,***,Gas
18644,"2022-03-01 16:32:00",68,"7 Circus Street, Oxford OX4 1JR - Gas ",19,"Circus Street 7",10518.00,m³,***,Gas
18555,"2022-02-01 11:24:00",68,"7 Circus Street, Oxford OX4 1JR - Gas ",19,"Circus Street 7",10290.00,m³,***,Gas
18459,"2022-01-05 08:28:38",68,"7 Circus Street, Oxford OX4 1JR - Gas ",19,"Circus Street 7",10043.00,m³,***,Gas
18359,"2021-12-01 16:07:48",68,"7 Circus Street, Oxford OX4 1JR - Gas ",19,"Circus Street 7",9828.00,m³,***,Gas
18187,"2021-11-01 14:24:15",68,"7 Circus Street, Oxford OX4 1JR - Gas ",19,"Circus Street 7",9610.00,m³,***,Gas
18107,"2021-09-30 10:35:30",68,"7 Circus Street, Oxford OX4 1JR - Gas ",19,"Circus Street 7",9476.00,m³,***,Gas
18081,"2021-09-01 13:47:43",68,"7 Circus Street, Oxford OX4 1JR - Gas ",19,"Circus Street 7",9458.00,m³,***,Gas
17959,"2021-08-03 10:27:20",68,"7 Circus Street, Oxford OX4 1JR - Gas ",19,"Circus Street 7",9452.00,m³,***,Gas
17910,"2021-07-02 17:32:28",68,"7 Circus Street, Oxford OX4 1JR - Gas ",19,"Circus Street 7",9442.00,m³,***,Gas
17824,"2021-06-01 16:19:06",68,"7 Circus Street, Oxford OX4 1JR - Gas ",19,"Circus Street 7",9423.00,m³,***,Gas
17768,"2021-05-05 17:20:43",68,"7 Circus Street, Oxford OX4 1JR - Gas ",19,"Circus Street 7",9374.00,m³,***,Gas
17605,"2021-04-01 14:31:44",68,"7 Circus Street, Oxford OX4 1JR - Gas ",19,"Circus Street 7",9284.00,m³,***,Gas
17466,"2021-03-01 15:05:46",68,"7 Circus Street, Oxford OX4 1JR - Gas ",19,"Circus Street 7",9169.00,m³,***,Gas
17381,"2021-02-01 13:57:13",68,"7 Circus Street, Oxford OX4 1JR - Gas ",19,"Circus Street 7",9020.00,m³,***,Gas
17355,"2021-01-05 15:16:25",68,"7 Circus Street, Oxford OX4 1JR - Gas ",19,"Circus Street 7",8898.00,m³,***,Gas
17246,"2020-12-01 10:31:11",68,"7 Circus Street, Oxford OX4 1JR - Gas ",19,"Circus Street 7",8728.00,m³,***,Gas
17146,"2020-11-02 10:25:00",68,"7 Circus Street, Oxford OX4 1JR - Gas ",19,"Circus Street 7",8621.00,m³,***,Gas
17131,"2020-10-07 09:35:00",68,"7 Circus Street, Oxford OX4 1JR - Gas ",19,"Circus Street 7",8516.00,m³,***,Gas
16994,"2020-09-01 09:51:00",68,"7 Circus Street, Oxford OX4 1JR - Gas ",19,"Circus Street 7",8485.00,m³,***,Gas
16913,"2020-07-30 13:32:00",68,"7 Circus Street, Oxford OX4 1JR - Gas ",19,"Circus Street 7",8471.00,m³,***,Gas
16836,"2020-07-01 13:15:00",68,"7 Circus Street, Oxford OX4 1JR - Gas ",19,"Circus Street 7",8426.00,m³,***,Gas
16773,"2020-06-01 12:38:00",68,"7 Circus Street, Oxford OX4 1JR - Gas ",19,"Circus Street 7",8346.00,m³,***,Gas
16739,"2020-05-01 13:45:00",68,"7 Circus Street, Oxford OX4 1JR - Gas ",19,"Circus Street 7",8231.00,m³,***,Gas
16621,"2020-04-20 11:55:00",68,"7 Circus Street, Oxford OX4 1JR - Gas ",19,"Circus Street 7",8187.00,m³,***,Gas
16597,"2020-03-03 10:49:00",68,"7 Circus Street, Oxford OX4 1JR - Gas ",19,"Circus Street 7",7888.00,m³,***,Gas
16379,"2020-02-03 11:33:00",68,"7 Circus Street, Oxford OX4 1JR - Gas ",19,"Circus Street 7",7693.00,m³,***,Gas
7508,"2019-12-01 00:00:00",68,"7 Circus Street, Oxford OX4 1JR - Gas ",19,"Circus Street 7",7498.00,m³,***,Gas
7507,"2019-11-01 00:00:00",68,"7 Circus Street, Oxford OX4 1JR - Gas ",19,"Circus Street 7",7309.00,m³,***,Gas
7506,"2019-10-01 00:00:00",68,"7 Circus Street, Oxford OX4 1JR - Gas ",19,"Circus Street 7",7110.00,m³,***,Gas
7505,"2019-09-01 00:00:00",68,"7 Circus Street, Oxford OX4 1JR - Gas ",19,"Circus Street 7",6980.00,m³,***,Gas
7504,"2019-08-01 00:00:00",68,"7 Circus Street, Oxford OX4 1JR - Gas ",19,"Circus Street 7",6934.00,m³,***,Gas
7503,"2019-07-01 00:00:00",68,"7 Circus Street, Oxford OX4 1JR - Gas ",19,"Circus Street 7",6914.00,m³,***,Gas
7502,"2019-06-01 00:00:00",68,"7 Circus Street, Oxford OX4 1JR - Gas ",19,"Circus Street 7",6903.00,m³,***,Gas
7501,"2019-05-01 00:00:00",68,"7 Circus Street, Oxford OX4 1JR - Gas ",19,"Circus Street 7",6852.00,m³,***,Gas
7500,"2019-04-01 00:00:00",68,"7 Circus Street, Oxford OX4 1JR - Gas ",19,"Circus Street 7",6745.00,m³,***,Gas
8314,"2019-03-01 00:00:00",68,"7 Circus Street, Oxford OX4 1JR - Gas ",19,"Circus Street 7",6567.00,m³,***,Gas
8313,"2019-02-01 00:00:00",68,"7 Circus Street, Oxford OX4 1JR - Gas ",19,"Circus Street 7",6372.00,m³,***,Gas
8312,"2019-01-01 00:00:00",68,"7 Circus Street, Oxford OX4 1JR - Gas ",19,"Circus Street 7",6236.00,m³,***,Gas
8311,"2018-12-01 00:00:00",68,"7 Circus Street, Oxford OX4 1JR - Gas ",19,"Circus Street 7",5957.00,m³,***,Gas
8310,"2018-11-01 00:00:00",68,"7 Circus Street, Oxford OX4 1JR - Gas ",19,"Circus Street 7",5741.00,m³,***,Gas
8309,"2018-10-01 00:00:00",68,"7 Circus Street, Oxford OX4 1JR - Gas ",19,"Circus Street 7",5549.00,m³,***,Gas
8308,"2018-09-01 00:00:00",68,"7 Circus Street, Oxford OX4 1JR - Gas ",19,"Circus Street 7",5403.00,m³,***,Gas
8307,"2018-08-01 00:00:00",68,"7 Circus Street, Oxford OX4 1JR - Gas ",19,"Circus Street 7",5390.00,m³,***,Gas
8306,"2018-07-01 00:00:00",68,"7 Circus Street, Oxford OX4 1JR - Gas ",19,"Circus Street 7",5368.00,m³,***,Gas
8305,"2018-06-01 00:00:00",68,"7 Circus Street, Oxford OX4 1JR - Gas ",19,"Circus Street 7",5360.00,m³,***,Gas
8304,"2018-05-01 00:00:00",68,"7 Circus Street, Oxford OX4 1JR - Gas ",19,"Circus Street 7",5347.00,m³,***,Gas
8303,"2018-04-01 00:00:00",68,"7 Circus Street, Oxford OX4 1JR - Gas ",19,"Circus Street 7",5300.00,m³,***,Gas
8302,"2018-03-01 00:00:00",68,"7 Circus Street, Oxford OX4 1JR - Gas ",19,"Circus Street 7",5165.00,m³,***,Gas
9127,"2018-03-01 00:00:00",68,"7 Circus Street, Oxford OX4 1JR - Gas ",19,"Circus Street 7",5165.00,m³,***,Gas
9126,"2018-02-01 00:00:00",68,"7 Circus Street, Oxford OX4 1JR - Gas ",19,"Circus Street 7",5042.00,m³,***,Gas
9125,"2018-01-01 00:00:00",68,"7 Circus Street, Oxford OX4 1JR - Gas ",19,"Circus Street 7",4808.00,m³,***,Gas
9124,"2017-12-01 00:00:00",68,"7 Circus Street, Oxford OX4 1JR - Gas ",19,"Circus Street 7",4564.00,m³,***,Gas
9123,"2017-11-01 00:00:00",68,"7 Circus Street, Oxford OX4 1JR - Gas ",19,"Circus Street 7",4475.00,m³,***,Gas
9122,"2017-10-01 00:00:00",68,"7 Circus Street, Oxford OX4 1JR - Gas ",19,"Circus Street 7",4289.00,m³,***,Gas
9121,"2017-09-01 00:00:00",68,"7 Circus Street, Oxford OX4 1JR - Gas ",19,"Circus Street 7",4196.00,m³,***,Gas
9120,"2017-08-01 00:00:00",68,"7 Circus Street, Oxford OX4 1JR - Gas ",19,"Circus Street 7",4134.00,m³,***,Gas
9119,"2017-07-01 00:00:00",68,"7 Circus Street, Oxford OX4 1JR - Gas ",19,"Circus Street 7",4110.00,m³,***,Gas
9118,"2017-06-01 00:00:00",68,"7 Circus Street, Oxford OX4 1JR - Gas ",19,"Circus Street 7",4092.00,m³,***,Gas
9117,"2017-05-01 00:00:00",68,"7 Circus Street, Oxford OX4 1JR - Gas ",19,"Circus Street 7",4062.00,m³,***,Gas
9116,"2017-04-01 00:00:00",68,"7 Circus Street, Oxford OX4 1JR - Gas ",19,"Circus Street 7",4005.00,m³,***,Gas
9115,"2017-03-01 00:00:00",68,"7 Circus Street, Oxford OX4 1JR - Gas ",19,"Circus Street 7",3941.00,m³,***,Gas
9921,"2017-03-01 00:00:00",68,"7 Circus Street, Oxford OX4 1JR - Gas ",19,"Circus Street 7",3941.00,m³,***,Gas
9920,"2017-02-01 00:00:00",68,"7 Circus Street, Oxford OX4 1JR - Gas ",19,"Circus Street 7",3811.00,m³,***,Gas
9919,"2017-01-01 00:00:00",68,"7 Circus Street, Oxford OX4 1JR - Gas ",19,"Circus Street 7",3641.00,m³,***,Gas
9918,"2016-12-01 00:00:00",68,"7 Circus Street, Oxford OX4 1JR - Gas ",19,"Circus Street 7",3442.00,m³,***,Gas
9917,"2016-11-01 00:00:00",68,"7 Circus Street, Oxford OX4 1JR - Gas ",19,"Circus Street 7",3254.00,m³,***,Gas
9916,"2016-10-01 00:00:00",68,"7 Circus Street, Oxford OX4 1JR - Gas ",19,"Circus Street 7",3088.00,m³,***,Gas
9915,"2016-09-01 00:00:00",68,"7 Circus Street, Oxford OX4 1JR - Gas ",19,"Circus Street 7",2984.00,m³,***,Gas
9914,"2016-08-01 00:00:00",68,"7 Circus Street, Oxford OX4 1JR - Gas ",19,"Circus Street 7",2896.00,m³,***,Gas
9913,"2016-07-01 00:00:00",68,"7 Circus Street, Oxford OX4 1JR - Gas ",19,"Circus Street 7",2854.00,m³,***,Gas
9912,"2016-06-01 00:00:00",68,"7 Circus Street, Oxford OX4 1JR - Gas ",19,"Circus Street 7",2787.00,m³,***,Gas
9911,"2016-05-01 00:00:00",68,"7 Circus Street, Oxford OX4 1JR - Gas ",19,"Circus Street 7",2710.00,m³,***,Gas
9910,"2016-04-01 00:00:00",68,"7 Circus Street, Oxford OX4 1JR - Gas ",19,"Circus Street 7",2624.00,m³,***,Gas
9909,"2016-03-01 00:00:00",68,"7 Circus Street, Oxford OX4 1JR - Gas ",19,"Circus Street 7",2495.00,m³,***,Gas
10741,"2016-03-01 00:00:00",68,"7 Circus Street, Oxford OX4 1JR - Gas ",19,"Circus Street 7",2495.00,m³,***,Gas
10740,"2016-02-01 00:00:00",68,"7 Circus Street, Oxford OX4 1JR - Gas ",19,"Circus Street 7",2264.00,m³,***,Gas
10739,"2016-01-01 00:00:00",68,"7 Circus Street, Oxford OX4 1JR - Gas ",19,"Circus Street 7",2002.00,m³,***,Gas
10738,"2015-12-01 00:00:00",68,"7 Circus Street, Oxford OX4 1JR - Gas ",19,"Circus Street 7",1788.00,m³,***,Gas
10737,"2015-11-01 00:00:00",68,"7 Circus Street, Oxford OX4 1JR - Gas ",19,"Circus Street 7",1723.00,m³,***,Gas
10736,"2015-10-01 00:00:00",68,"7 Circus Street, Oxford OX4 1JR - Gas ",19,"Circus Street 7",1550.00,m³,***,Gas
10735,"2015-09-01 00:00:00",68,"7 Circus Street, Oxford OX4 1JR - Gas ",19,"Circus Street 7",1401.00,m³,***,Gas
10734,"2015-08-01 00:00:00",68,"7 Circus Street, Oxford OX4 1JR - Gas ",19,"Circus Street 7",1223.00,m³,***,Gas
10733,"2015-07-01 00:00:00",68,"7 Circus Street, Oxford OX4 1JR - Gas ",19,"Circus Street 7",1173.00,m³,***,Gas
10732,"2015-06-01 00:00:00",68,"7 Circus Street, Oxford OX4 1JR - Gas ",19,"Circus Street 7",1087.00,m³,***,Gas
10731,"2015-05-01 00:00:00",68,"7 Circus Street, Oxford OX4 1JR - Gas ",19,"Circus Street 7",1065.00,m³,***,Gas
10730,"2015-04-01 00:00:00",68,"7 Circus Street, Oxford OX4 1JR - Gas ",19,"Circus Street 7",977.00,m³,***,Gas
10729,"2015-03-01 00:00:00",68,"7 Circus Street, Oxford OX4 1JR - Gas ",19,"Circus Street 7",911.00,m³,***,Gas
11987,"2015-03-01 00:00:00",68,"7 Circus Street, Oxford OX4 1JR - Gas ",19,"Circus Street 7",911.00,m³,***,Gas
11986,"2015-02-01 00:00:00",68,"7 Circus Street, Oxford OX4 1JR - Gas ",19,"Circus Street 7",823.00,m³,***,Gas
11985,"2015-01-01 00:00:00",68,"7 Circus Street, Oxford OX4 1JR - Gas ",19,"Circus Street 7",564.00,m³,***,Gas
11984,"2014-12-01 00:00:00",68,"7 Circus Street, Oxford OX4 1JR - Gas ",19,"Circus Street 7",339.00,m³,***,Gas
11983,"2014-11-01 00:00:00",68,"7 Circus Street, Oxford OX4 1JR - Gas ",19,"Circus Street 7",151.00,m³,***,Gas
11982,"2014-10-01 00:00:00",68,"7 Circus Street, Oxford OX4 1JR - Gas ",19,"Circus Street 7",44.00,m³,***,Gas
